[Iaude] MPEC G41: 2024 FT4 [a=1.42,e=0.28,i=5.7,H=26.1]
    mpec at cfa.harvard.edu 
    mpec at cfa.harvard.edu
       
    Thu Apr  4 08:41:28 EDT 2024
    
    
  
M.P.E.C. 2024-G41                                 Issued 2024 April 4, 12:39 UT
     The Minor Planet Electronic Circulars contain information on unusual
         minor planets, routine data on comets and natural satellites,
         and occasional editorial announcements.  They are published
    on behalf of Division F of the International Astronomical Union by the
          Minor Planet Center, Smithsonian Astrophysical Observatory,
                          Cambridge, MA 02138, U.S.A.
			  
             Prepared using the Tamkin Foundation Computer Network
                              MPC at CFA.HARVARD.EDU
            URL https://www.minorplanetcenter.net/    ISSN 1523-6714
                                    2024 FT4                                    
Observations:
     K24F04T* C2024 03 31.42467511 52 52.655-02 26 43.96         21.42wXEG041F52
     K24F04T  C2024 03 31.43847011 52 51.136-02 27 52.40         21.84wXEG041F52
     K24F04T  C2024 03 31.46603211 52 48.134-02 30 09.75         21.64wXEG041F52
     K24F04T  C2024 04 01.34690111 51 52.187-03 45 50.94         20.92GVEG041F51
     K24F04T  C2024 04 01.34772011 51 52.098-03 45 55.50         20.89GVEG041F51
     K24F04T |C2024 04 03.09408011 49 44.400-06 28 50.40         20.9 GVEG041807
     K24F04T |C2024 04 03.09958011 49 43.750-06 29 23.70         21.2 GVEG041807
     K24F04T |C2024 04 03.10509011 49 43.110-06 29 57.00         21.2 GVEG041807
     K24F04T 1C2024 04 04.20654411 48 17.266-08 26 38.80         21.72GVEG041G96
     K24F04T 1C2024 04 04.21214411 48 16.549-08 27 15.95         20.55GVEG041G96
     K24F04T 1C2024 04 04.21773811 48 15.865-08 27 53.10         20.97GVEG041G96
     K24F04T 1C2024 04 04.22333611 48 15.181-08 28 29.42         21.19GVEG041G96
     K24F04T KC2024 04 04.39410 11 47 54.42 -08 46 59.2          20.9 RVEG041691
     K24F04T KC2024 04 04.39982 11 47 53.78 -08 47 36.3          21.1 RVEG041691
     K24F04T KC2024 04 04.40555 11 47 53.13 -08 48 13.3          21.7 RVEG041691
Observer details:
691 Steward Observatory, Kitt Peak-Spacewatch.  Observer T. H. Bressi.  0.9-m
    f/3 reflector + CCD.
807 Cerro Tololo Observatory, La Serena.  Observers T. Linder, R. Holmes.
    0.61-m f/6.8 Ritchey-Chretien + CCD.
F51 Pan-STARRS 1, Haleakala.  Observers J. Herman, T. Lowe, P. Minguez, A.
    Schultz, I. Smith.  Measurers K. Chambers, T. de Boer, J. Fairlamb, H.
    Gao, M. Huber, C.-C. Lin, E. Magnier, Y. Ramanjooloo, R. Wainscoat, R.
    Weryk.  1.8-m Ritchey-Chretien + CCD.
F52 Pan-STARRS 2, Haleakala.  Observers J. Herman, T. Lowe, P. Minguez, A.
    Schultz, I. Smith.  Measurers K. Chambers, T. de Boer, J. Fairlamb, H.
    Gao, M. Huber, C.-C. Lin, E. Magnier, Y. Ramanjooloo, R. Wainscoat, R.
    Weryk.  1.8-m Ritchey-Chretien + CCD.
G96 Mt. Lemmon Survey.  Observer G. J. Leonard.  Measurers T. Beuden, V. F.
    Carvajal, D. Fay, J. B. Fazekas, D. C. Fuls, A. R. Gibbs, A. D. Grauer, H.
    Groeller, J. K. Hogan, R. A. Kowalski, S. M. Larson, G. J. Leonard, D.
    Rankin, R. L. Seaman, F. C. Shelly, K. W. Wierzchos.  1.5-m reflector +
    10K CCD.
Orbital elements:
2024 FT4                                                 Earth MOID = 0.0490 AU
Epoch 2024 Mar. 31.0 TT = JDT 2460400.5                 Veres                   
M 337.02796              (2000.0)            P               Q                  
n   0.58284178     Peri.  222.83298     -0.63473892     +0.77261035             
a   1.4193917      Node     7.79985     -0.67956370     -0.54986923             
e   0.2806505      Incl.    5.66948     -0.36783105     -0.31735953             
P   1.69           H   26.17          G   0.15           U   8                  
Residuals in seconds of arc
240331 F52  0.0   0.2-    240403 807  0.0   0.1+    240404 G96  0.1+  0.3-
240331 F52  0.1+  0.1+    240403 807  0.1-  0.0     240404 G96  0.2+  0.1-
240331 F52  0.0   0.1+    240403 807  0.0   0.1-    240404 691  0.2+  0.1-
240401 F51  0.0   0.1+    240404 G96  0.5+  1.0+    240404 691  0.2+  0.0
240401 F51  0.0   0.1-    240404 G96  0.1+  0.4+    240404 691  0.1-  0.2+
Ephemeris:
2024 FT4                 a,e,i = 1.42, 0.28, 6                   q = 1.0210
Date    TT    R. A. (2000) Decl.     Delta      r    Elong.  Phase     V
2024 03 05    12 07 51.2 +13 52 34   0.1817  1.1662   162.3    15.0    23.6
...
2024 03 20    12 02 52.1 +08 21 43   0.1179  1.1126   171.7     7.4    22.3
...
2024 03 28    11 56 28.3 +01 46 14   0.09065 1.0877   170.9     8.3    21.7
...
2024 04 03    11 49 48.9 -06 20 11   0.07352 1.0711   165.2    13.8    21.4
2024 04 04    11 48 31.3 -08 03 05   0.07099 1.0685   163.8    15.1    21.4
2024 04 05    11 47 10.0 -09 53 16   0.06857 1.0660   162.4    16.5    21.4
...
2024 04 11    11 37 33.4 -23 45 18   0.05658 1.0521   151.3    27.2    21.3
...
2024 04 19    11 17 45.3 -49 18 21   0.04944 1.0373   130.8    47.1    21.5
...
2024 05 04    03 52 26.3 -84 26 43   0.06420 1.0221   100.6    75.8    22.9
M. P. C. Staff               (C) Copyright 2024 MPC           M.P.E.C. 2024-G41
    
    
More information about the Iaude
mailing list